Weather History for KMHT - March, 2013

Change the Weather History Date:

Saturday, March 23, 2013

  Actual Average Record
Temperature  
Mean Temperature 35 °F -  
Max Temperature 42 °F 47 °F 73 °F (2012)
Min Temperature 28 °F 29 °F 13 °F (1951)
Degree Days  
Heating Degree Days 30    
Cooling Degree Days 0    
Moisture  
Dew Point 17 °F    
Average Humidity 49    
Maximum Humidity 67    
Minimum Humidity 33    
Precipitation  
Precipitation 0.00 in 0.17 in 0.84 in (1972)
Month to date precipitation 2.93  
Year to date precipitation 8.73  
Snow  
Snow 0.00 in - - ()
Month to date snowfall  
Since 1 July snowfall  
Snow Depth 5.00 in    
Sea Level Pressure  
Sea Level Pressure 29.73 in    
Wind  
Wind Speed 11 mph (West)    
Max Wind Speed 18 mph    
Max Gust Speed 36 mph    
Visibility 10 miles    
Events      
T = Trace of Precipitation, MM = Missing Value Source: NWS Daily Summary

Daily Weather History Graph

Daily Weather History Graph

Search for Another Location

Airport or City:

Trip Planner

Search our weather history database for the weather conditions in past years. The results will help you decide how hot, cold, wet, or windy it might be!

Date:

Astronomy

Mar. 23, 2013 Rise Set
Actual Time 6:43 AM EDT 7:01 PM EDT
Civil Twilight 6:15 AM EDT 7:30 PM EDT
Nautical Twilight 5:41 AM EDT 8:03 PM EDT
Astronomical Twilight 5:07 AM EDT 8:37 PM EDT
Moon 3:20 PM EDT (3/23) 4:22 AM EDT (3/23)
Length of Visible Light 13h 15m
Length of Day
12h 18m
Waxing Gibbous, 85% of the Moon is Illuminated
Mar 23
Waxing Gibbous
Mar 27
Full
Apr 3
Last Quarter
Apr 10
New
Apr 18
First Quarter

Hourly Weather History & Observations

Time (EDT) Temp. Windchill Dew Point Humidity Pressure Visibility Wind Dir Wind Speed Gust Speed Precip Events Conditions
12:53 AM 30.9 °F 21.7 °F 16.0 °F 54% 29.76 in 10.0 mi WNW 11.5 mph 19.6 mph N/A   Partly Cloudy
1:53 AM 28.9 °F 22.8 °F 16.0 °F 58% 29.76 in 10.0 mi West 5.8 mph - N/A   Clear
2:53 AM 28.9 °F 21.9 °F 17.1 °F 61% 29.75 in 10.0 mi WSW 6.9 mph - N/A   Mostly Cloudy
3:53 AM 28.0 °F 22.8 °F 17.1 °F 63% 29.74 in 10.0 mi WSW 4.6 mph - N/A   Clear
4:53 AM 28.0 °F - 17.1 °F 63% 29.73 in 10.0 mi Calm Calm - N/A   Clear
5:53 AM 28.0 °F 24.2 °F 17.1 °F 63% 29.73 in 10.0 mi SW 3.5 mph - N/A   Clear
6:53 AM 28.9 °F 21.1 °F 19.0 °F 67% 29.71 in 10.0 mi WSW 8.1 mph - N/A   Clear
7:53 AM 30.9 °F 22.2 °F 19.0 °F 61% 29.71 in 10.0 mi West 10.4 mph 18.4 mph N/A   Clear
8:53 AM 33.1 °F 22.6 °F 19.0 °F 56% 29.72 in 10.0 mi West 16.1 mph 23.0 mph N/A   Overcast
9:53 AM 35.1 °F 24.5 °F 19.0 °F 52% 29.70 in 10.0 mi West 18.4 mph 25.3 mph N/A   Mostly Cloudy
10:53 AM 37.0 °F 28.1 °F 17.1 °F 44% 29.69 in 10.0 mi WNW 15.0 mph 26.5 mph N/A   Mostly Cloudy
11:53 AM 37.9 °F 30.9 °F 15.1 °F 39% 29.68 in 10.0 mi WNW 10.4 mph 25.3 mph N/A   Mostly Cloudy
12:53 PM 39.0 °F 29.9 °F 14.0 °F 36% 29.68 in 10.0 mi West 17.3 mph 31.1 mph N/A   Overcast
1:53 PM 39.9 °F 30.8 °F 15.1 °F 36% 29.68 in 10.0 mi WNW 18.4 mph - N/A   Mostly Cloudy
2:53 PM 39.9 °F 30.8 °F 16.0 °F 38% 29.67 in 10.0 mi NW 18.4 mph 28.8 mph N/A   Mostly Cloudy
3:53 PM 42.1 °F 33.6 °F 15.1 °F 34% 29.67 in 10.0 mi West 18.4 mph 35.7 mph N/A   Scattered Clouds
4:53 PM 41.0 °F 32.8 °F 14.0 °F 33% 29.69 in 10.0 mi WNW 16.1 mph 31.1 mph N/A   Scattered Clouds
5:53 PM 39.9 °F 32.9 °F 14.0 °F 35% 29.72 in 10.0 mi WNW 11.5 mph 28.8 mph N/A   Mostly Cloudy
6:53 PM 39.0 °F 29.9 °F 15.1 °F 38% 29.74 in 10.0 mi WNW 17.3 mph 25.3 mph N/A   Mostly Cloudy
7:53 PM 37.9 °F 28.9 °F 16.0 °F 41% 29.78 in 10.0 mi NW 16.1 mph 23.0 mph N/A   Mostly Cloudy
8:53 PM 37.0 °F 27.7 °F 17.1 °F 44% 29.79 in 10.0 mi WNW 16.1 mph 25.3 mph N/A   Mostly Cloudy
9:53 PM 36.0 °F 29.6 °F 18.0 °F 48% 29.79 in 10.0 mi WNW 8.1 mph - N/A   Partly Cloudy
10:53 PM 35.1 °F 29.3 °F 18.0 °F 50% 29.80 in 10.0 mi West 6.9 mph - N/A   Scattered Clouds
11:53 PM 35.1 °F 27.9 °F 19.0 °F 52% 29.80 in 10.0 mi WNW 9.2 mph - N/A   Overcast